Temp
21 22 21 21 22 21 22 22 23 23 23 22 22 21 21 21 22 22 21 21 22 21 21 21 21 21 21 21 21 21 21 20 20 20 20 20 20 20 20 20 20 20 20
21 21 22 22 22 23 22 23 23 23 23 23 23 22 21 21 21 21 21 20 21 21 20 20 21 21 21 21 21 20 21 20 20 21 21 20 20 20 20 20 20 20 20
23 23 22 22 23 22 23 23 23 23 23 23 23 23 22 22 21 21 21 21 20 21 20 21 21 21 21 21 20 20 20 21 21 20 20 20 20 20 20 20 20 20 20
23 23 22 22 22 23 22 23 23 23 23 23 22 23 22 21 21 21 21 21 20 20 20 21 20 21 21 20 20 20 20 20 21 21 21 20 20 20 20 20 20 20 20
24 23 23 23 23 22 22 22 23 23 23 22 23 22 21 21 22 22 22 21 21 20 19 21 21 20 21 20 20 21 21 20 20 21 20 21 20 20 20 20 20 20 20
24 24 23 24 24 23 23 22 23 23 22 23 21 22 22 22 21 21 21 22 21 21 21 21 20 20 20 20 21 20 21 21 20 20 21 20 20 20 20 20 20 20 20
24 24 23 23 23 23 23 23 22 23 21 21 21 23 23 22 22 22 21 21 21 20 21 21 20 20 19 20 20 20 21 20 20 20 20 20 20 20 20 20 20 20 20
25 24 24 23 24 23 23 23 23 23 22 22 22 23 25 25 23 23 23 21 21 21 20 20 20 20 20 19 19 20 20 20 20 21 20 20 20 20 20 20 20 20 20
25 25 25 24 24 24 23 23 23 23 23 22 21 22 24 26 24 23 23 22 21 21 22 20 20 20 19 20 19 19 20 20 20 20 21 20 20 20 20 20 20 20 20
26 25 25 25 24 23 22 22 22 22 21 23 22 20 21 22 24 25 24 23 22 22 22 23 22 20 21 20 20 20 20 20 20 20 20 20 20 20 20 20 20 20 20
26 25 25 25 24 23 23 23 22 22 22 22 22 22 22 22 21 21 23 24 23 23 22 23 23 21 20 21 19 20 20 20 20 19 20 20 20 20 20 20 20 20 19
24 26 26 25 25 24 24 24 24 23 24 23 23 22 22 23 22 20 20 21 23 23 23 23 23 22 21 21 20 20 21 20 20 20 20 20 20 20 20 19 20 19 19
24 25 26 25 24 25 25 24 24 23 23 23 23 23 23 22 23 22 21 23 22 24 23 23 23 22 21 19 21 21 21 21 20 20 20 20 20 20 20 20 19 19 18
24 25 25 25 25 25 25 24 23 23 23 22 22 23 23 22 22 22 22 22 23 25 24 22 23 23 22 20 20 22 20 21 21 20 20 20 19 20 20 20 20 19 19
24 25 25 25 25 25 25 23 23 22 21 21 21 21 22 22 22 22 21 21 22 24 26 23 23 24 23 22 22 21 21 21 21 21 20 20 19 19 19 20 20 19 19
25 24 24 24 24 24 24 22 22 21 20 20 20 21 21 23 22 22 21 21 21 22 23 23 24 24 24 22 22 22 21 22 22 21 20 20 19 19 19 19 19 20 19
24 24 24 24 24 23 23 21 22 21 19 19 20 21 22 23 23 23 22 21 21 20 21 22 24 24 24 23 23 22 21 21 21 22 20 20 19 19 19 19 19 19 20
25 24 22 24 24 24 22 21 22 20 21 22 22 22 22 23 23 23 23 23 24 21 21 22 23 23 24 24 23 22 21 21 20 22 22 19 19 19 19 19 19 19 19
24 25 24 25 25 25 23 22 23 21 21 22 22 23 22 22 22 23 22 21 21 23 22 21 23 23 23 24 24 22 21 21 20 21 22 21 20 19 19 19 18 19 19
23 23 23 24 24 24 23 23 22 21 20 21 21 21 23 22 22 22 22 21 21 22 22 21 21 23 22 23 23 23 21 22 22 22 21 21 21 21 20 19 19 19 19
23 23 23 23 23 23 23 22 22 22 22 21 21 21 21 20 21 22 21 22 21 21 22 23 23 23 23 22 23 24 23 23 22 22 23 22 20 21 21 21 20 19 19
23 23 23 23 23 23 23 24 23 22 21 21 22 22 21 24 23 23 22 21 21 21 22 23 24 23 24 24 24 24 23 22 24 23 23 22 20 20 21 21 22 22 20
23 22 22 22 22 22 24 24 23 21 21 21 21 21 22 23 22 21 21 22 22 22 21 21 21 22 23 23 22 23 23 22 24 23 22 24 21 20 22 21 23 23 23
21 21 21 21 21 21 23 22 23 21 21 21 20 20 22 23 22 23 22 22 22 22 22 23 21 24 24 23 22 22 22 23 23 23 22 25 22 21 22 21 21 23 23
22 21 21 21 21 21 22 22 21 20 20 20 21 22 21 23 25 24 23 22 22 23 23 24 23 23 23 24 22 20 21 21 23 24 21 24 25 23 22 22 23 24 23
21 21 21 20 21 21 20 22 22 20 21 21 21 23 23 24 24 24 23 21 22 24 22 22 23 24 24 23 24 22 24 22 23 23 23 22 25 24 25 24 23 22 23
Height
876 877 877 878 879 880 881 880 880 881 879 879 880 879 879 880 880 880 881 881 881 882 882 882 881 881 882 883 883 884 885 886 887 888 889 891 892 893 894 896 897 899 900
876 876 877 878 878 879 879 879 879 878 878 879 879 878 878 878 878 878 879 878 880 880 881 881 881 882 882 881 882 883 884 885 886 887 887 889 890 892 893 895 896 898 899
875 876 876 877 878 878 878 878 878 877 878 877 877 877 877 876 875 876 876 876 877 878 877 879 879 880 880 881 880 882 882 884 884 884 886 887 888 890 891 893 894 896 898
874 875 875 876 877 876 876 875 875 875 875 875 875 874 874 873 872 872 872 873 874 875 875 875 876 877 877 879 880 878 881 882 883 883 884 885 887 888 889 891 892 894 896
872 873 873 874 874 875 875 873 872 871 872 871 871 872 871 870 869 867 868 868 869 870 872 872 874 874 876 876 878 878 877 880 881 882 882 884 885 886 887 888 890 891 893
870 870 871 871 871 872 872 871 870 869 868 870 870 867 867 865 864 863 863 863 865 866 867 869 871 871 872 873 873 874 875 877 879 880 881 881 882 883 884 886 887 889 891
867 868 868 867 868 869 869 868 868 867 867 867 868 865 863 861 860 859 860 859 862 862 863 865 865 867 866 869 870 871 872 874 875 878 878 879 880 881 882 884 886 887 889
863 864 865 865 865 866 866 864 866 866 866 865 865 865 859 858 858 858 856 856 857 858 858 860 860 861 863 864 865 866 868 870 871 873 875 877 878 879 880 881 883 885 886
860 861 862 862 863 863 863 863 863 863 863 863 862 864 860 856 857 856 856 855 854 854 852 853 854 855 856 856 857 860 862 864 866 869 871 873 875 876 878 879 881 883 885
858 858 859 859 859 860 860 860 859 859 860 860 860 859 860 860 857 853 854 853 853 851 850 848 847 848 848 848 851 851 853 857 859 863 866 868 871 873 875 876 878 880 882
855 856 856 855 855 855 855 855 855 855 856 856 856 856 856 856 856 856 850 850 850 848 845 843 842 842 842 842 844 845 847 850 853 854 860 863 866 868 870 872 874 876 879
850 851 851 851 850 850 850 850 849 848 849 851 850 848 849 850 851 852 850 848 846 843 841 840 837 837 835 835 836 839 841 844 847 850 853 857 860 863 866 868 869 872 875
847 847 847 846 845 845 844 844 844 843 844 845 846 844 843 843 844 847 846 843 842 839 836 834 832 831 832 831 832 833 835 837 840 844 847 850 853 856 861 863 865 867 870
841 842 842 841 840 840 839 839 839 839 838 839 838 838 837 836 837 840 841 841 838 833 833 831 827 828 826 828 828 829 831 833 835 837 840 843 846 849 853 858 860 862 865
835 835 836 836 835 835 835 834 835 834 833 833 833 833 832 830 831 834 836 837 836 832 827 827 827 826 825 825 825 825 826 827 829 831 833 835 838 842 845 850 854 857 860
829 829 830 830 830 830 830 830 830 830 829 828 828 827 828 827 826 828 830 831 831 831 829 824 824 824 824 824 823 823 823 823 823 824 826 828 830 834 838 842 846 850 854
824 824 824 825 825 824 825 825 825 826 825 822 821 821 823 824 823 822 824 825 825 825 824 820 820 820 820 819 819 819 819 820 819 819 820 822 823 826 828 833 838 843 847
817 819 820 819 819 820 820 820 821 823 821 820 820 821 819 820 819 816 817 817 818 818 818 815 814 814 814 815 816 816 816 814 814 813 814 815 817 818 822 826 831 836 840
812 814 814 814 815 815 816 816 817 818 817 817 817 818 817 815 813 811 811 810 811 811 809 809 808 807 807 809 809 810 812 812 810 809 809 811 811 812 815 818 822 827 831
809 810 809 809 811 811 811 811 812 813 812 812 813 812 809 807 807 806 806 805 804 803 804 803 802 800 800 802 804 806 808 808 806 806 805 806 807 807 808 809 813 815 820
805 806 804 805 806 805 806 808 809 808 807 807 806 806 804 801 801 799 799 798 798 798 797 797 796 797 797 800 799 801 803 803 801 802 802 804 805 803 801 803 804 808 812
801 801 802 803 802 801 802 803 803 802 802 800 799 798 797 796 793 792 792 792 793 794 793 790 790 791 793 796 796 800 801 800 797 796 796 797 802 801 799 798 799 801 803
798 798 800 800 798 798 798 798 800 798 797 796 795 794 793 793 790 789 788 787 787 787 788 789 788 787 786 791 793 795 796 796 792 792 792 789 791 794 794 794 794 796 796
798 798 797 797 795 796 795 795 794 793 792 791 789 789 788 787 787 786 785 784 784 783 782 780 780 781 781 784 787 788 791 791 791 789 788 786 785 786 789 788 788 788 790
796 795 795 794 794 794 792 791 790 788 786 785 784 783 783 782 781 782 780 780 778 779 778 778 777 778 779 777 782 782 784 786 785 782 782 783 780 781 782 782 782 782 784
796 795 794 792 790 789 789 787 786 785 782 781 778 777 777 776 776 777 776 776 774 774 775 775 774 774 774 773 774 778 778 779 778 780 777 779 776 778 776 775 776 778 778
Wind_Speed
1 2 3 2 2 1 1 2 2 3 5 5 6 7 5 5 8 8 8 6 4 4 3 1 1 2 2 2 3 4 5 8 9 10 11 12 12 12 12 13 12 13 13
4 3 4 4 3 3 3 5 6 8 10 11 10 8 7 5 9 9 11 13 10 10 5 2 2 2 3 3 3 4 4 4 8 10 11 12 13 12 13 13 13 13 15
6 6 5 5 5 6 8 9 10 11 11 13 13 11 10 11 10 11 13 14 13 15 16 10 6 5 5 5 4 3 6 4 5 11 12 12 14 14 14 14 15 15 15
8 9 8 7 6 9 10 12 13 15 14 12 10 13 13 10 11 12 11 16 16 16 18 14 10 10 9 7 6 6 5 7 7 8 11 13 14 15 15 15 15 15 15
11 11 10 11 11 11 10 10 11 11 12 11 11 15 12 12 12 14 15 15 14 18 17 20 14 14 13 11 10 10 11 10 10 9 11 12 14 16 16 17 16 16 16
12 12 12 13 13 12 12 11 12 12 12 11 11 16 16 16 15 14 16 17 16 14 22 21 16 17 21 17 16 16 16 15 13 11 12 13 14 16 15 17 17 18 17
14 14 14 15 14 13 15 14 10 12 10 9 9 13 12 13 10 10 12 14 14 14 18 22 23 22 21 21 19 17 22 18 15 15 13 14 15 16 17 18 18 19 18
15 15 17 15 15 15 16 14 12 10 9 9 7 8 4 5 3 5 5 8 12 13 14 15 20 23 25 26 23 22 22 23 21 19 17 15 16 17 17 18 19 19 19
15 17 17 18 17 16 13 14 15 13 11 8 9 6 3 3 11 2 7 4 5 9 12 14 16 17 20 25 29 28 26 27 28 25 22 19 18 18 18 18 18 18 20
15 15 16 18 19 14 15 14 12 12 11 13 8 11 11 8 3 5 4 8 11 9 10 13 15 17 22 24 27 29 29 30 31 28 26 24 22 22 22 22 21 21 21
17 16 16 18 19 17 16 17 16 14 13 14 12 10 9 11 12 10 7 9 11 11 14 16 15 16 19 22 22 29 30 31 31 33 33 30 28 26 25 24 24 25 26
12 15 17 19 21 21 22 20 20 19 20 18 17 14 14 11 7 8 7 10 13 14 11 12 14 14 18 19 22 24 28 29 30 31 34 35 32 31 28 26 24 24 25
15 16 19 19 18 20 23 24 23 21 20 22 24 22 16 15 19 15 14 15 9 13 9 10 10 9 10 13 17 21 23 28 28 30 32 34 37 34 32 30 26 25 25
15 19 22 23 22 21 20 21 22 23 18 17 18 23 18 16 13 14 19 13 10 12 11 6 10 7 6 10 12 13 18 25 27 28 29 32 36 37 36 33 30 27 27
18 22 22 23 22 23 21 20 21 22 21 20 19 18 20 14 12 13 14 14 14 8 8 6 5 6 5 7 9 13 16 18 22 27 29 31 32 36 37 37 35 32 29
16 18 21 22 22 21 21 20 24 24 20 20 22 22 20 14 10 12 14 15 17 17 7 8 11 11 11 11 10 12 15 15 17 20 23 27 32 34 37 38 39 37 35
14 15 17 17 19 20 20 20 22 19 15 13 14 14 18 14 13 15 14 14 15 17 14 19 18 16 15 13 13 13 15 17 17 18 19 23 26 32 36 39 40 41 39
10 13 14 14 16 17 17 18 19 14 14 8 9 8 13 13 15 14 16 21 20 16 17 19 16 16 17 14 13 14 14 16 17 18 17 20 24 27 34 37 40 40 41
10 11 14 16 16 16 16 17 17 16 13 14 11 12 13 11 12 12 13 12 15 20 20 17 14 10 13 13 14 12 14 16 16 19 17 18 19 25 30 35 38 41 42
11 12 12 14 16 16 16 16 16 15 13 13 13 15 19 14 16 16 15 17 17 14 14 15 16 16 12 13 16 14 14 16 16 16 17 18 19 19 23 29 36 38 43
12 12 11 13 14 15 14 14 15 15 15 15 15 15 15 13 18 18 15 14 14 12 14 16 17 12 10 10 12 14 18 15 17 15 15 15 18 21 23 22 26 33 37
10 9 10 11 13 13 16 18 18 14 15 16 17 15 12 12 14 14 13 15 16 15 16 16 18 14 17 19 15 17 17 12 14 16 18 16 18 20 19 23 25 28 28
9 9 9 10 13 16 18 19 18 15 15 15 15 14 12 8 11 8 10 13 15 17 20 15 16 17 13 13 11 16 20 18 18 9 17 14 18 24 26 23 28 32 31
7 7 8 8 10 11 14 14 13 15 14 16 14 15 15 12 8 9 10 9 11 12 12 11 18 18 16 11 13 15 23 25 22 15 14 12 13 17 16 20 27 29 31
8 8 8 9 10 10 13 14 15 15 14 16 16 17 17 17 18 15 14 13 13 10 9 8 9 14 11 11 19 19 19 20 17 18 16 16 12 11 13 16 17 21 25
10 10 11 12 15 15 15 15 15 13 16 16 14 18 21 21 19 16 16 14 16 13 8 6 12 13 15 11 10 19 22 20 15 8 14 13 16 11 7 11 14 13 20
Wind_Direction
243 237 232 231 206 235 253 263 273 267 266 284 292 284 258 246 237 213 195 193 195 200 182 124 116 163 183 191 215 221 222 217 213 205 204 199 195 189 191 193 195 193 190
272 259 236 234 239 255 263 284 286 298 304 307 301 305 294 268 236 230 209 208 209 205 198 209 233 232 223 222 224 227 227 228 223 219 206 202 201 197 195 196 195 195 195
270 258 255 255 265 281 277 274 281 280 293 297 296 302 288 291 271 254 229 217 220 221 238 239 231 231 230 230 231 237 246 225 228 225 217 206 208 205 201 201 203 199 197
271 268 262 269 278 288 288 289 289 284 284 285 298 301 294 285 286 271 250 240 229 224 232 240 241 223 217 217 235 228 239 244 240 226 216 214 212 207 206 205 199 199 201
265 269 263 268 281 277 281 282 289 288 283 286 287 288 286 280 284 282 260 251 247 234 230 234 242 226 227 232 236 235 236 250 245 233 222 218 213 209 210 207 203 200 202
262 265 268 271 275 269 268 270 277 280 272 280 285 289 288 283 279 273 262 259 254 248 236 241 243 237 236 237 232 220 222 239 242 237 230 223 215 210 210 204 205 201 200
260 269 268 270 275 272 282 283 270 271 280 274 282 296 300 289 273 267 260 258 246 247 245 243 248 245 242 241 238 234 224 228 236 239 235 228 222 218 213 209 206 202 203
255 263 267 269 277 275 280 274 266 264 267 272 267 300 313 315 228 307 287 261 247 243 242 243 249 246 243 238 235 238 235 225 226 230 233 231 225 220 212 209 207 206 201
257 263 267 271 280 284 279 280 280 280 284 279 270 252 299 311 326 313 309 289 259 249 261 245 243 240 236 241 240 239 237 229 229 227 227 227 225 215 209 207 205 206 208
267 264 268 270 277 271 270 278 278 275 264 271 264 251 256 274 304 306 295 299 295 275 264 272 257 244 247 245 239 232 231 229 229 230 228 226 226 223 220 220 219 215 212
269 269 271 273 270 267 268 274 268 266 258 260 260 263 261 259 253 251 289 291 296 289 283 283 270 254 252 248 233 231 230 228 229 227 230 229 227 227 224 224 224 221 218
267 270 277 280 275 270 269 271 274 267 265 261 256 246 247 252 252 235 250 278 284 298 288 282 279 256 262 246 233 228 229 230 229 228 226 229 227 227 225 222 222 220 217
268 269 281 287 283 282 275 269 269 269 272 271 270 264 253 255 268 258 266 275 277 297 294 289 288 253 244 244 232 228 225 228 231 232 231 229 229 228 228 225 220 216 216
270 280 281 283 285 285 284 275 266 270 273 273 271 265 250 251 254 258 251 270 283 283 291 274 306 259 236 232 230 226 225 227 228 233 234 232 231 229 228 227 223 220 217
270 277 278 278 281 282 281 277 272 277 276 278 264 267 255 248 254 261 261 259 258 287 287 295 274 259 234 235 234 224 222 225 225 229 235 235 233 229 226 227 226 223 222
290 281 275 277 277 277 276 273 276 283 286 278 270 272 258 245 253 269 262 256 247 254 268 276 274 257 256 247 245 236 230 225 223 226 230 235 234 231 228 228 228 226 224
288 282 276 280 280 275 271 270 277 283 292 289 270 269 264 268 264 268 260 257 242 236 249 274 269 277 263 252 247 241 231 230 231 232 232 234 237 232 229 227 228 229 229
294 280 267 280 278 277 268 266 273 271 273 284 305 265 283 285 266 262 268 260 255 239 239 252 268 265 277 268 255 235 231 231 233 236 239 235 234 231 228 228 229 231 231
282 280 276 275 274 276 273 272 272 267 260 262 267 272 278 282 278 281 272 258 262 259 246 247 256 253 278 270 259 240 236 233 232 236 235 242 237 227 228 230 230 230 232
272 267 270 271 268 270 271 276 267 265 261 254 252 273 293 282 278 277 271 264 264 250 250 244 248 249 259 269 243 243 238 235 234 227 230 235 240 233 226 227 231 230 230
272 274 276 266 264 270 270 270 268 271 274 266 262 271 273 270 280 278 264 266 267 252 245 241 242 243 239 247 240 259 247 238 233 225 219 226 231 230 225 224 222 226 226
285 279 272 267 269 275 275 284 276 271 276 277 278 280 277 285 307 304 267 261 254 253 250 244 250 237 259 274 298 270 257 232 239 228 213 220 225 232 226 221 220 218 216
304 300 292 287 285 285 282 286 286 277 272 272 271 269 265 276 299 299 280 271 257 254 249 256 252 236 254 275 295 301 259 242 243 232 209 216 225 233 236 237 232 230 233
319 312 310 305 298 297 304 301 296 284 273 269 264 260 256 262 291 317 292 271 281 264 254 255 232 244 246 256 313 294 273 258 251 234 215 240 216 230 235 238 242 238 238
325 324 316 309 303 299 303 303 296 285 278 270 269 263 251 260 287 297 293 280 286 269 260 250 253 262 279 267 301 284 260 246 242 240 228 237 231 230 226 236 237 237 237
300 299 296 297 298 299 298 297 293 283 278 276 271 267 263 264 278 281 280 275 270 258 226 240 259 262 258 246 259 264 254 244 236 258 232 220 240 228 240 233 227 233 237